This is the latest recevied weather packets stored in our database for station/object N6WDO. If no packets are shown the sender has not sent any weather packets the latest 10 day(s).
| Time | Temp. | Humidity | Pressure | Rain* | Wind** | Luminosity | Snow |
|---|---|---|---|---|---|---|---|
| 1777994867 | 10.56° C | 99% | 1015.5 hPa | 0 mm | - | 82 W/m² | - |
| 1777994564 | 10.56° C | 99% | 1015.2 hPa | 0 mm | - | 66 W/m² | - |
| 1777994258 | 10.56° C | 99% | 1015.3 hPa | 1.78 mm | - | 57 W/m² | - |
| 1777993956 | 10° C | 99% | 1015.5 hPa | 1.78 mm | - | 56 W/m² | - |
| 1777993653 | 10° C | 99% | 1015.3 hPa | 0 mm | - | 58 W/m² | - |
| 1777993350 | 10° C | 99% | 1015.2 hPa | 0 mm | - | 58 W/m² | - |
| 1777993044 | 10° C | 99% | 1015.3 hPa | 0 mm | - | 57 W/m² | - |
| 1777992743 | 10° C | 99% | 1015.3 hPa | 0 mm | - | 54 W/m² | - |
| 1777992440 | 10° C | 99% | 1015.2 hPa | 0 mm | - | 54 W/m² | - |
| 1777992138 | 10° C | 99% | 1015.1 hPa | 0 mm | - | 59 W/m² | - |
| 1777991835 | 10° C | 99% | 1015.2 hPa | 0 mm | - | 54 W/m² | - |
| 1777991532 | 10° C | 99% | 1014.9 hPa | 0 mm | - | 64 W/m² | - |
| 1777991229 | 10° C | 99% | 1015 hPa | 0 mm | - | 49 W/m² | - |
| 1777990926 | 10° C | 99% | 1015 hPa | 0 mm | - | 35 W/m² | - |
| 1777990624 | 10° C | 99% | 1014.9 hPa | 0 mm | - | 41 W/m² | - |
| 1777990017 | 10° C | 99% | 1014.7 hPa | 0 mm | - | 56 W/m² | - |
| 1777989714 | 10° C | 99% | 1014.8 hPa | 0 mm | - | 55 W/m² | - |
| 1777989410 | 10° C | 99% | 1014.8 hPa | 0 mm | - | 35 W/m² | - |
| 1777989107 | 10° C | 99% | 1014.7 hPa | 0 mm | - | 28 W/m² | - |
| 1777988803 | 10° C | 99% | 1014.9 hPa | 0 mm | - | 19 W/m² | - |
| 1777988501 | 10° C | 99% | 1014.4 hPa | 0 mm | - | 16 W/m² | - |
| 1777988197 | 10° C | 99% | 1014.7 hPa | 0 mm | - | 12 W/m² | - |
| 1777987893 | 10° C | 99% | 1014.5 hPa | 0 mm | - | 12 W/m² | - |
| 1777987589 | 10° C | 99% | 1014.7 hPa | 0 mm | - | 11 W/m² | - |
| 1777987287 | 10° C | 99% | 1014.5 hPa | 1.27 mm | - | 8 W/m² | - |
* Rain latest hour (hover to see other rain measurements)
** Current wind speed in m/s (hover to see current wind gust speed)